Regional Weather Roundup
Issued by NWS Goodland, KS

Home | Current Version | Previous Version | Graphics & Text | Print | Product List | Glossary On
Versions: 1 2 3 4 5 6 7 8 9 10 11 12 13 14 15 16 17 18 19 20 21 22 23 24 25 26 27 28 29 30 31 32 33 34 35 36 37 38 39 40 41 42 43 44 45 46 47 48 49 50
000
ASUS43 KGLD 251708
RWRGLD

GOODLAND FORECAST AREA HOURLY WEATHER ROUNDUP
NATIONAL WEATHER SERVICE GOODLAND KS
1100 AM MDT MON JUL 25 2016

...OFFICIAL OBSERVATIONS...

CITY           SKY/WX    TMP DP  RH WIND       PRES   REMARKS
GOODLAND KS    SUNNY     79  62  56 SE13      30.19F
HILL CITY KS   SUNNY     79  69  71 SE10      30.16F
IMPERIAL NEB   SUNNY     78  62  57 SE14      30.18F
MCCOOK NEB     SUNNY     81  62  52 SE13      30.16F
AKRON CO       SUNNY     75  58  55 SE20G25   30.20F
BURLINGTON CO  SUNNY     75  63  66 SE15      30.22S
LIMON CO       SUNNY     80  56  43 S16G24    30.23F
$$

...UNOFFICIAL OBSERVATIONS...

CITY           SKY/WX    TMP DP  RH WIND       PRES   REMARKS
COLBY KS       SUNNY     79  66  65 E12       30.21S
LENORA KS        N/A     77  32  19 MISG        N/A
NORTON KS      SUNNY     81  59  47 SE9       30.16R
YUMA CO          N/A     75  63  66 S5G15       N/A
$$




USA.gov is the U.S. government's official web portal to all federal, state and local government web resources and services.